Simultaneous Nadir Overpasses (SNOs) Predictions

Prediction of SNOs between GOES-15 and TERRA Satellite Orbit:

Table of predicted SNOs for the next 14.0 days since TLE Epoch: 7/1/2023
Index Date Time (GOES-15) GOES-15 Lat,Lon TERRA Lat,Lon Distance(km) Time Diff (sec)
1 07/01/2023 09:00:42 0.17,-167.44 0.82,-164.38 347.74 80
2 07/01/2023 21:23:31 -0.13,-167.65 0.24,-169.27 185.46 80
3 07/03/2023 21:04:32 -0.16,-168.38 -0.82,-165.37 343.43 80
4 07/04/2023 09:27:31 0.12,-168.55 -0.26,-170.30 198.61 80
5 07/06/2023 09:08:31 0.15,-169.28 0.76,-166.38 329.56 80
6 07/06/2023 21:31:21 -0.11,-169.49 0.30,-171.28 204.11 80
7 07/08/2023 21:12:21 -0.14,-170.21 -0.73,-167.36 324.10 80
8 07/09/2023 09:35:20 0.09,-170.38 -0.32,-172.29 217.72 80
9 07/11/2023 09:16:19 0.12,-171.10 0.67,-168.37 310.12 80
10 07/11/2023 21:39:10 -0.07,-171.31 0.33,-173.28 223.90 80
11 07/13/2023 21:20:09 -0.10,-172.02 -0.67,-169.35 303.24 80
12 07/14/2023 09:43:08 0.05,-172.18 -0.36,-174.29 238.64 80
